When you browse on this site, cookies collect data to enhance your experience and personalize the content and advertising you see.
Visit our Privacy Policy to learn more. By continuing to use the site, you agree to this use of cookies and data.
  • In Slovakia
  • List of Countries
  • For 7 days
  • Water Temperature
  • Weather Map
  • Weather Widgets
  • user-avatar
    Login

    Hourly Weather Tirana

    Today, 15 October, Tuesday

    Time Temperature Precipitation Wind Pressure Humidity
    00:00 +20°C° 0 mm 1 mps 757 mmHg 80%
    01:00 +20°C° 0 mm 1 mps 757 mmHg 83%
    02:00 +19°C° 0 mm 1 mps 756 mmHg 84%
    03:00 +19°C° 0 mm 1 mps 756 mmHg 84%
    04:00 +19°C° 0 mm 1 mps 756 mmHg 85%
    05:00 +19°C° 0 mm 1 mps 756 mmHg 82%
    06:00 +20°C° 0 mm 1 mps 756 mmHg 80%
    07:00 +21°C° 0 mm 1 mps 756 mmHg 74%
    08:00 +23°C° 0 mm 1 mps 756 mmHg 68%
    09:00 +24°C° 0 mm 1 mps 756 mmHg 61%
    10:00 +26°C° 0 mm 1 mps 756 mmHg 55%
    11:00 +27°C° 0 mm 1 mps 756 mmHg 53%
    12:00 +27°C° 0 mm 2 mps 755 mmHg 52%
    13:00 +28°C° 0 mm 2 mps 755 mmHg 50%
    14:00 +27°C° 0 mm 2 mps 755 mmHg 54%
    15:00 +26°C° 0 mm 2 mps 754 mmHg 57%
    16:00 +25°C° 0 mm 1 mps 754 mmHg 61%
    17:00 +24°C° 0 mm 1 mps 754 mmHg 66%
    18:00 +22°C° 0 mm 1 mps 754 mmHg 72%
    19:00 +19°C° 0 mm 0 mps 755 mmHg 78%
    20:00 +21°C° 0 mm 1 mps 755 mmHg 78%
    21:00 +20°C° 0 mm 1 mps 755 mmHg 79%
    22:00 +20°C° 0 mm 1 mps 755 mmHg 80%
    23:00 +20°C° 0 mm 1 mps 755 mmHg 81%

    Tomorrow, 16 October, Wednesday

    Time Temperature Precipitation Wind Pressure Humidity
    00:00 +19°C° 0 mm 1 mps 755 mmHg 82%
    01:00 +18°C° 0 mm 2 mps 755 mmHg 82%
    02:00 +18°C° 0 mm 2 mps 755 mmHg 82%
    03:00 +18°C° 0 mm 2 mps 754 mmHg 81%
    04:00 +17°C° 0 mm 2 mps 754 mmHg 80%
    05:00 +18°C° 0 mm 2 mps 754 mmHg 76%
    06:00 +19°C° 0 mm 2 mps 754 mmHg 72%
    07:00 +19°C° 0 mm 2 mps 754 mmHg 68%
    08:00 +22°C° 0 mm 1 mps 754 mmHg 60%
    09:00 +24°C° 0 mm 1 mps 754 mmHg 52%
    10:00 +26°C° 0 mm 1 mps 755 mmHg 43%
    11:00 +27°C° 0 mm 2 mps 754 mmHg 42%
    12:00 +27°C° 0 mm 2 mps 754 mmHg 40%
    13:00 +28°C° 0 mm 2 mps 754 mmHg 38%
    14:00 +27°C° 0 mm 2 mps 754 mmHg 45%
    15:00 +26°C° 0 mm 2 mps 753 mmHg 52%
    16:00 +25°C° 0 mm 1 mps 753 mmHg 59%
    17:00 +24°C° 0 mm 1 mps 753 mmHg 64%
    18:00 +22°C° 0 mm 1 mps 754 mmHg 69%
    19:00 +21°C° 0 mm 1 mps 754 mmHg 74%
    20:00 +21°C° 0 mm 1 mps 754 mmHg 73%
    21:00 +20°C° 0 mm 1 mps 754 mmHg 73%
    22:00 +20°C° 0 mm 1 mps 755 mmHg 73%
    23:00 +20°C° 0 mm 1 mps 755 mmHg 72%

    Day after tomorrow, 17 October, Thursday

    Time Temperature Precipitation Wind Pressure Humidity
    00:00 +20°C° 0 mm 1 mps 755 mmHg 71%
    01:00 +20°C° 0 mm 1 mps 755 mmHg 70%
    02:00 +19°C° 0 mm 1 mps 755 mmHg 69%
    03:00 +19°C° 0 mm 1 mps 755 mmHg 68%
    04:00 +19°C° 0 mm 1 mps 754 mmHg 68%
    05:00 +19°C° 0 mm 1 mps 754 mmHg 65%
    06:00 +20°C° 0 mm 1 mps 755 mmHg 63%
    07:00 +20°C° 0 mm 1 mps 755 mmHg 61%
    08:00 +22°C° 0 mm 1 mps 755 mmHg 56%
    09:00 +24°C° 0 mm 1 mps 755 mmHg 50%
    10:00 +26°C° 0 mm 1 mps 755 mmHg 45%
    11:00 +26°C° 0 mm 1 mps 755 mmHg 44%
    12:00 +27°C° 0 mm 2 mps 755 mmHg 42%
    13:00 +27°C° 0 mm 2 mps 755 mmHg 41%
    14:00 +26°C° 0 mm 2 mps 755 mmHg 46%
    15:00 +25°C° 0 mm 2 mps 754 mmHg 50%
    16:00 +24°C° 0 mm 2 mps 754 mmHg 55%
    17:00 +23°C° 0 mm 2 mps 755 mmHg 59%
    18:00 +21°C° 0 mm 2 mps 755 mmHg 63%
    19:00 +20°C° 0 mm 1 mps 755 mmHg 68%
    20:00 +20°C° 0 mm 1 mps 755 mmHg 68%
    21:00 +20°C° 0 mm 1 mps 755 mmHg 69%
    22:00 +19°C° 0 mm 1 mps 756 mmHg 69%
    23:00 +19°C° 0 mm 1 mps 756 mmHg 70%

    18 October, Friday

    Time Temperature Precipitation Wind Pressure Humidity
    00:00 +19°C° 0 mm 1 mps 755 mmHg 70%
    01:00 +19°C° 0 mm 1 mps 755 mmHg 71%
    02:00 +19°C° 0 mm 1 mps 755 mmHg 71%
    03:00 +18°C° 0 mm 1 mps 755 mmHg 71%
    04:00 +18°C° 0 mm 1 mps 755 mmHg 71%
    05:00 +19°C° 0 mm 1 mps 755 mmHg 69%
    06:00 +19°C° 0 mm 1 mps 755 mmHg 68%
    07:00 +20°C° 0 mm 1 mps 755 mmHg 66%
    08:00 +21°C° 0 mm 1 mps 755 mmHg 60%
    09:00 +23°C° 0 mm 1 mps 756 mmHg 53%
    10:00 +25°C° 0 mm 1 mps 756 mmHg 47%
    11:00 +26°C° 0 mm 2 mps 755 mmHg 46%
    12:00 +26°C° 0 mm 2 mps 755 mmHg 45%
    13:00 +27°C° 0 mm 3 mps 755 mmHg 44%
    14:00 +26°C° 0 mm 3 mps 755 mmHg 50%
    15:00 +25°C° 0 mm 3 mps 755 mmHg 55%
    16:00 +24°C° 0 mm 3 mps 754 mmHg 61%
    17:00 +21°C° 0 mm 2 mps 755 mmHg 67%
    18:00 +20°C° 0 mm 2 mps 755 mmHg 73%
    19:00 +20°C° 0 mm 1 mps 755 mmHg 80%
    20:00 +19°C° 0 mm 1 mps 755 mmHg 79%
    21:00 +19°C° 0 mm 1 mps 755 mmHg 79%
    22:00 +19°C° 0 mm 1 mps 756 mmHg 79%
    23:00 +19°C° 0 mm 1 mps 755 mmHg 79%

    19 October, Saturday

    Time Temperature Precipitation Wind Pressure Humidity
    00:00 +19°C° 0 mm 1 mps 755 mmHg 79%
    01:00 +18°C° 0 mm 1 mps 755 mmHg 79%
    02:00 +18°C° 0 mm 1 mps 755 mmHg 79%
    03:00 +18°C° 0 mm 1 mps 755 mmHg 78%
    04:00 +18°C° 0 mm 1 mps 755 mmHg 78%
    05:00 +18°C° 0 mm 1 mps 755 mmHg 76%
    06:00 +19°C° 0 mm 1 mps 755 mmHg 73%
    07:00 +19°C° 0 mm 1 mps 755 mmHg 71%
    08:00 +21°C° 0 mm 1 mps 755 mmHg 64%
    09:00 +23°C° 0 mm 1 mps 755 mmHg 57%
    10:00 +25°C° 0 mm 1 mps 755 mmHg 50%
    11:00 +25°C° 0 mm 1 mps 755 mmHg 48%
    12:00 +26°C° 0 mm 1 mps 755 mmHg 46%
    13:00 +27°C° 0 mm 2 mps 755 mmHg 44%
    14:00 +26°C° 0 mm 2 mps 754 mmHg 49%
    15:00 +25°C° 0 mm 2 mps 754 mmHg 55%
    16:00 +24°C° 0 mm 2 mps 754 mmHg 60%
    17:00 +23°C° 0 mm 1 mps 755 mmHg 65%
    18:00 +21°C° 0 mm 1 mps 755 mmHg 71%
    19:00 +18°C° 0 mm 0 mps 755 mmHg 76%
    20:00 +20°C° 0 mm 1 mps 755 mmHg 76%
    21:00 +20°C° 0 mm 1 mps 756 mmHg 77%
    22:00 +18°C° 0 mm 2 mps 756 mmHg 77%
    23:00 +18°C° 0 mm 2 mps 756 mmHg 77%

    20 October, Sunday

    Time Temperature Precipitation Wind Pressure Humidity
    00:00 +18°C° 0 mm 2 mps 756 mmHg 78%
    01:00 +19°C° 0 mm 1 mps 756 mmHg 78%
    02:00 +18°C° 0 mm 1 mps 756 mmHg 78%
    03:00 +18°C° 0 mm 1 mps 756 mmHg 78%
    04:00 +18°C° 0 mm 1 mps 755 mmHg 79%
    05:00 +18°C° 0 mm 2 mps 756 mmHg 77%
    06:00 +18°C° 0 mm 2 mps 756 mmHg 75%
    07:00 +18°C° 0 mm 2 mps 756 mmHg 73%
    08:00 +20°C° 0 mm 2 mps 756 mmHg 66%
    09:00 +23°C° 0 mm 2 mps 756 mmHg 60%
    10:00 +25°C° 0 mm 1 mps 756 mmHg 53%
    11:00 +25°C° 0 mm 2 mps 756 mmHg 52%
    12:00 +26°C° 0 mm 2 mps 756 mmHg 51%
    13:00 +26°C° 0 mm 3 mps 756 mmHg 50%
    14:00 +25°C° 0 mm 2 mps 756 mmHg 55%
    15:00 +24°C° 0 mm 2 mps 756 mmHg 59%
    16:00 +23°C° 0 mm 2 mps 755 mmHg 64%
    17:00 +22°C° 0 mm 1 mps 756 mmHg 69%
    18:00 +21°C° 0 mm 1 mps 756 mmHg 74%
    19:00 +20°C° 0 mm 1 mps 756 mmHg 80%
    20:00 +20°C° 0 mm 1 mps 757 mmHg 81%
    21:00 +19°C° 0 mm 1 mps 757 mmHg 81%
    22:00 +19°C° 0 mm 1 mps 757 mmHg 82%
    23:00 +19°C° 0 mm 1 mps 757 mmHg 83%
    Show more